Location: Six Mile Lake
(44.9000°N, 79.7170°W)
Time: 13:14:44
(UTC-04:00)

O/OREOS (USA 219) - Pass Details

Date: 01 July 2022
Orbit: 621 x 646 km, 72.0° (Epoch: 22 May)

Event Time Altitude Azimuth Distance (km) Brightness Sun altitude
Rises 03:16:23 0° 316° (NW) 2,963 ? -17.2°
Reaches altitude 10° 03:19:57 10° 287° (WNW) 2,048 ? -16.9°
Enters shadow 03:21:37 12° 266° (W) 1,889 ? -16.8°
